Location: Le Vaud
(46.4779°N, 6.2346°E)
Time: 00:03:22
(UTC+00:00)

STARLINK-1102 - Pass Details

Date: 18 February 2020
Orbit: 548 x 551 km, 53.0° (Epoch: 09 April)

Event Time Altitude Azimuth Distance (km) Brightness Sun altitude
Exits shadow 04:05:57 - 161° (SSE) 1,948 6.5 -26.2°
Reaches altitude 10° 04:06:41 10° 152° (SSE) 1,809 6.4 -26.1°
Drops below altitude 10° 04:10:03 10° 103° (ESE) 1,814 7.1 -25.5°
Enters shadow 05:10:22 -66° 236° (SW) 12,212 10.4 -15.2°
Maximum altitude 05:47:13 65° 145° (SE) 602 4.0 -8.8°
